Time,TemperatureF,DewpointF,PressureIn,WindDirection,WindDirectionDegrees,WindSpeedMPH,WindSpeedGustMPH,Humidity,HourlyPrecipIn,Conditions,Clouds,dailyrainin,SoftwareType,DateUTC
2013-01-29 00:01:00,21.0,20.0,-100.00,SW,235,0.0,0.0,96,-99.99,,,-99.99,,2013-01-29 07:01:00,
2013-01-29 00:11:00,21.0,20.0,-100.00,SW,235,0.0,0.0,96,-99.99,,,-99.99,,2013-01-29 07:11:00,
2013-01-29 00:21:00,21.0,20.0,-100.00,West,275,0.0,0.0,96,-99.99,,,-99.99,,2013-01-29 07:21:00,
2013-01-29 00:31:00,21.0,20.0,-100.00,West,275,0.0,0.0,96,-99.99,,,-99.99,,2013-01-29 07:31:00,
2013-01-29 00:41:00,21.0,20.0,-100.00,SW,220,0.0,0.0,96,-99.99,,,-99.99,,2013-01-29 07:41:00,
2013-01-29 00:52:00,21.0,20.0,-100.00,SW,220,0.0,0.0,96,-99.99,,,-99.99,,2013-01-29 07:52:00,
2013-01-29 01:01:00,20.0,20.0,-100.00,SW,215,0.0,0.0,96,-99.99,,,-99.99,,2013-01-29 08:01:00,
2013-01-29 01:11:00,20.0,20.0,-100.00,WSW,240,0.0,0.0,96,-99.99,,,-99.99,,2013-01-29 08:11:00,
2013-01-29 01:21:00,20.0,20.0,-100.00,WSW,240,0.0,0.0,96,-99.99,,,-99.99,,2013-01-29 08:21:00,
2013-01-29 01:31:00,20.0,19.0,-100.00,SW,225,0.0,0.0,96,-99.99,,,-99.99,,2013-01-29 08:31:00,
2013-01-29 01:41:00,20.0,19.0,-100.00,West,260,0.0,0.0,96,-99.99,,,-99.99,,2013-01-29 08:41:00,
2013-01-29 01:51:00,20.0,19.0,-100.00,West,260,0.0,0.0,96,-99.99,,,-99.99,,2013-01-29 08:51:00,
2013-01-29 02:01:00,20.0,19.0,-100.00,WSW,245,0.0,0.0,95,-99.99,,,-99.99,,2013-01-29 09:01:00,
2013-01-29 02:11:00,20.0,19.0,-100.00,SW,220,0.0,0.0,96,-99.99,,,-99.99,,2013-01-29 09:11:00,
2013-01-29 02:21:00,20.0,19.0,-100.00,SW,220,0.0,0.0,96,-99.99,,,-99.99,,2013-01-29 09:21:00,
2013-01-29 02:31:00,20.0,19.0,-100.00,WSW,240,0.0,0.0,95,-99.99,,,-99.99,,2013-01-29 09:31:00,
2013-01-29 02:42:00,19.0,18.0,-100.00,WSW,245,0.0,0.0,95,-99.99,,,-99.99,,2013-01-29 09:42:00,
2013-01-29 02:51:00,19.0,18.0,-100.00,WSW,245,0.0,0.0,95,-99.99,,,-99.99,,2013-01-29 09:51:00,
2013-01-29 03:01:00,19.0,18.0,-100.00,West,270,0.0,0.0,95,-99.99,,,-99.99,,2013-01-29 10:01:00,
2013-01-29 03:11:00,19.0,18.0,-100.00,WSW,250,0.0,0.0,95,-99.99,,,-99.99,,2013-01-29 10:11:00,
2013-01-29 03:21:00,19.0,18.0,-100.00,WSW,250,0.0,0.0,95,-99.99,,,-99.99,,2013-01-29 10:21:00,
2013-01-29 03:32:00,19.0,18.0,-100.00,WSW,250,0.0,0.0,95,-99.99,,,-99.99,,2013-01-29 10:32:00,
2013-01-29 03:41:00,19.0,17.0,-100.00,SW,220,0.0,0.0,95,-99.99,,,-99.99,,2013-01-29 10:41:00,
2013-01-29 03:51:00,18.0,17.0,-100.00,West,265,0.0,0.0,95,-99.99,,,-99.99,,2013-01-29 10:51:00,
2013-01-29 04:01:00,18.0,17.0,-100.00,WSW,240,0.0,0.0,94,-99.99,,,-99.99,,2013-01-29 11:01:00,
2013-01-29 04:11:00,18.0,17.0,-100.00,SW,215,0.0,0.0,94,-99.99,,,-99.99,,2013-01-29 11:11:00,
2013-01-29 04:21:00,18.0,17.0,-100.00,SW,215,0.0,0.0,94,-99.99,,,-99.99,,2013-01-29 11:21:00,
2013-01-29 04:31:00,18.0,16.0,-100.00,SW,225,0.0,0.0,94,-99.99,,,-99.99,,2013-01-29 11:31:00,
2013-01-29 04:42:00,17.0,16.0,-100.00,WSW,255,0.0,0.0,94,-99.99,,,-99.99,,2013-01-29 11:42:00,
2013-01-29 04:52:00,17.0,16.0,-100.00,WSW,255,0.0,0.0,94,-99.99,,,-99.99,,2013-01-29 11:52:00,
2013-01-29 05:02:00,17.0,16.0,-100.00,SW,235,0.0,0.0,94,-99.99,,,-99.99,,2013-01-29 12:02:00,
2013-01-29 05:12:00,17.0,16.0,-100.00,WSW,245,0.0,0.0,94,-99.99,,,-99.99,,2013-01-29 12:12:00,
2013-01-29 05:21:00,17.0,16.0,-100.00,WSW,255,0.0,0.0,93,-99.99,,,-99.99,,2013-01-29 12:21:00,
2013-01-29 05:32:00,17.0,16.0,-100.00,WSW,255,0.0,0.0,93,-99.99,,,-99.99,,2013-01-29 12:32:00,
2013-01-29 05:42:00,17.0,16.0,-100.00,WSW,255,0.0,0.0,93,-99.99,,,-99.99,,2013-01-29 12:42:00,
2013-01-29 05:52:00,17.0,15.0,-100.00,SW,235,0.0,0.0,93,-99.99,,,-99.99,,2013-01-29 12:52:00,
2013-01-29 06:01:00,16.0,15.0,-100.00,WSW,250,0.0,0.0,92,-99.99,,,-99.99,,2013-01-29 13:01:00,
2013-01-29 06:11:00,16.0,14.0,-100.00,West,260,0.0,0.0,92,-99.99,,,-99.99,,2013-01-29 13:11:00,
2013-01-29 06:22:00,15.0,14.0,-100.00,NW,320,0.0,0.0,92,-99.99,,,-99.99,,2013-01-29 13:22:00,
2013-01-29 06:31:00,15.0,13.0,-100.00,NW,315,0.0,0.0,92,-99.99,,,-99.99,,2013-01-29 13:31:00,
2013-01-29 06:42:00,15.0,13.0,-100.00,ENE,60,0.0,0.0,92,-99.99,,,-99.99,,2013-01-29 13:42:00,
2013-01-29 06:52:00,15.0,13.0,-100.00,ENE,60,0.0,0.0,92,-99.99,,,-99.99,,2013-01-29 13:52:00,
2013-01-29 07:01:00,14.0,12.0,-100.00,West,270,0.0,0.0,92,-99.99,,,-99.99,,2013-01-29 14:01:00,
2013-01-29 07:12:00,14.0,12.0,-100.00,West,270,0.0,0.0,92,-99.99,,,-99.99,,2013-01-29 14:12:00,
2013-01-29 07:21:00,13.0,11.0,-100.00,SW,215,0.0,0.0,91,-99.99,,,-99.99,,2013-01-29 14:21:00,
2013-01-29 07:32:00,13.0,11.0,-100.00,NW,310,0.0,0.0,91,-99.99,,,-99.99,,2013-01-29 14:32:00,
2013-01-29 07:42:00,13.0,11.0,-100.00,NW,310,0.0,0.0,91,-99.99,,,-99.99,,2013-01-29 14:42:00,
2013-01-29 07:52:00,13.0,11.0,-100.00,NW,310,0.0,0.0,91,-99.99,,,-99.99,,2013-01-29 14:52:00,
2013-01-29 08:02:00,12.0,10.0,-100.00,West,265,0.0,0.0,90,-99.99,,,-99.99,,2013-01-29 15:02:00,
2013-01-29 08:11:00,12.0,10.0,-100.00,East,95,0.0,0.0,90,-99.99,,,-99.99,,2013-01-29 15:11:00,
2013-01-29 08:21:00,12.0,10.0,-100.00,East,95,0.0,0.0,90,-99.99,,,-99.99,,2013-01-29 15:21:00,
2013-01-29 08:32:00,12.0,10.0,-100.00,East,95,0.0,0.0,90,-99.99,,,-99.99,,2013-01-29 15:32:00,
2013-01-29 08:42:00,13.0,10.0,-100.00,ENE,70,0.0,0.0,89,-99.99,,,-99.99,,2013-01-29 15:42:00,
2013-01-29 08:53:00,13.0,10.0,-100.00,East,85,0.0,0.0,89,-99.99,,,-99.99,,2013-01-29 15:53:00,
2013-01-29 09:01:00,13.0,10.0,-100.00,NE,50,0.0,0.0,89,-99.99,,,-99.99,,2013-01-29 16:01:00,
2013-01-29 09:12:00,13.0,10.0,-100.00,East,80,0.0,0.0,88,-99.99,,,-99.99,,2013-01-29 16:12:00,
2013-01-29 09:21:00,13.0,10.0,-100.00,East,80,0.0,0.0,88,-99.99,,,-99.99,,2013-01-29 16:21:00,
2013-01-29 09:32:00,14.0,11.0,-100.00,ESE,105,0.0,0.0,88,-99.99,,,-99.99,,2013-01-29 16:32:00,
2013-01-29 09:42:00,14.0,11.0,-100.00,SE,140,0.0,0.0,88,-99.99,,,-99.99,,2013-01-29 16:42:00,
2013-01-29 09:53:00,14.0,11.0,-100.00,WNW,290,0.0,0.0,88,-99.99,,,-99.99,,2013-01-29 16:53:00,
2013-01-29 10:02:00,14.0,11.0,-100.00,WNW,290,0.0,0.0,88,-99.99,,,-99.99,,2013-01-29 17:02:00,
2013-01-29 10:11:00,14.0,11.0,-100.00,WSW,240,0.0,0.0,87,-99.99,,,-99.99,,2013-01-29 17:11:00,
2013-01-29 10:21:00,14.0,11.0,-100.00,WSW,250,0.0,0.0,88,-99.99,,,-99.99,,2013-01-29 17:21:00,
2013-01-29 10:32:00,14.0,11.0,-100.00,WSW,250,0.0,0.0,88,-99.99,,,-99.99,,2013-01-29 17:32:00,
2013-01-29 10:42:00,16.0,13.0,-100.00,SW,215,0.0,0.0,87,-99.99,,,-99.99,,2013-01-29 17:42:00,
2013-01-29 10:52:00,16.0,13.0,-100.00,SSW,205,0.0,0.0,86,-99.99,,,-99.99,,2013-01-29 17:52:00,
2013-01-29 11:02:00,17.0,13.0,-100.00,SSW,205,0.0,0.0,86,-99.99,,,-99.99,,2013-01-29 18:02:00,
2013-01-29 11:11:00,17.0,13.0,-100.00,WSW,240,0.0,0.0,85,-99.99,,,-99.99,,2013-01-29 18:11:00,
2013-01-29 11:21:00,17.0,13.0,-100.00,WSW,240,0.0,0.0,85,-99.99,,,-99.99,,2013-01-29 18:21:00,
2013-01-29 11:33:00,18.0,14.0,-100.00,SW,230,0.0,0.0,84,-99.99,,,-99.99,,2013-01-29 18:33:00,
2013-01-29 11:42:00,19.0,15.0,-100.00,SW,235,0.0,0.0,83,-99.99,,,-99.99,,2013-01-29 18:42:00,
2013-01-29 11:51:00,22.0,17.0,-100.00,SW,220,0.0,0.0,82,-99.99,,,-99.99,,2013-01-29 18:51:00,
2013-01-29 12:01:00,24.0,19.0,-100.00,WSW,240,0.0,0.0,79,-99.99,,,-99.99,,2013-01-29 19:01:00,
2013-01-29 12:11:00,24.0,16.0,-100.00,SW,225,0.0,0.0,72,-99.99,,,-99.99,,2013-01-29 19:11:00,
2013-01-29 12:22:00,24.0,16.0,-100.00,SW,225,0.0,0.0,72,-99.99,,,-99.99,,2013-01-29 19:22:00,
2013-01-29 12:31:00,24.0,15.0,-100.00,SW,220,0.0,0.0,69,-99.99,,,-99.99,,2013-01-29 19:31:00,
2013-01-29 12:42:00,23.0,12.0,-100.00,SW,215,0.0,0.0,63,-99.99,,,-99.99,,2013-01-29 19:42:00,
2013-01-29 12:51:00,23.0,13.0,-100.00,SW,220,0.0,0.0,63,-99.99,,,-99.99,,2013-01-29 19:51:00,
2013-01-29 13:01:00,23.0,13.0,-100.00,SW,220,0.0,0.0,63,-99.99,,,-99.99,,2013-01-29 20:01:00,
2013-01-29 13:11:00,24.0,13.0,-100.00,SW,215,0.0,0.0,63,-99.99,,,-99.99,,2013-01-29 20:11:00,
2013-01-29 13:21:00,24.0,13.0,-100.00,SW,215,0.0,0.0,63,-99.99,,,-99.99,,2013-01-29 20:21:00,
2013-01-29 13:32:00,23.0,13.0,-100.00,SW,220,0.0,0.0,63,-99.99,,,-99.99,,2013-01-29 20:32:00,
2013-01-29 13:42:00,24.0,13.0,-100.00,SW,230,0.0,0.0,63,-99.99,,,-99.99,,2013-01-29 20:42:00,
2013-01-29 13:52:00,24.0,13.0,-100.00,SW,235,0.0,0.0,63,-99.99,,,-99.99,,2013-01-29 20:52:00,
2013-01-29 14:02:00,24.0,13.0,-100.00,SW,235,0.0,0.0,63,-99.99,,,-99.99,,2013-01-29 21:02:00,
2013-01-29 14:12:00,22.0,12.0,-100.00,SW,230,0.0,0.0,63,-99.99,,,-99.99,,2013-01-29 21:12:00,
2013-01-29 14:21:00,24.0,13.0,-100.00,WSW,245,0.0,0.0,63,-99.99,,,-99.99,,2013-01-29 21:21:00,
2013-01-29 14:32:00,24.0,13.0,-100.00,WSW,245,0.0,0.0,63,-99.99,,,-99.99,,2013-01-29 21:32:00,
2013-01-29 14:42:00,24.0,13.0,-100.00,SW,215,0.0,0.0,62,-99.99,,,-99.99,,2013-01-29 21:42:00,
2013-01-29 14:52:00,24.0,13.0,-100.00,SW,215,0.0,0.0,62,-99.99,,,-99.99,,2013-01-29 21:52:00,
2013-01-29 15:01:00,24.0,13.0,-100.00,SW,230,10.0,16.0,63,-99.99,,,-99.99,,2013-01-29 22:01:00,
2013-01-29 15:11:00,23.0,13.0,-100.00,SW,220,9.0,17.0,63,-99.99,,,-99.99,,2013-01-29 22:11:00,
2013-01-29 15:21:00,23.0,13.0,-100.00,SW,220,9.0,17.0,63,-99.99,,,-99.99,,2013-01-29 22:21:00,
2013-01-29 15:32:00,23.0,13.0,-100.00,WSW,240,6.0,15.0,64,-99.99,,,-99.99,,2013-01-29 22:32:00,
2013-01-29 15:42:00,23.0,13.0,-100.00,WSW,240,6.0,15.0,64,-99.99,,,-99.99,,2013-01-29 22:42:00,
2013-01-29 15:52:00,22.0,12.0,-100.00,West,265,6.0,17.0,65,-99.99,,,-99.99,,2013-01-29 22:52:00,
2013-01-29 16:02:00,21.0,12.0,-100.00,SW,215,8.0,14.0,67,-99.99,,,-99.99,,2013-01-29 23:02:00,
2013-01-29 16:11:00,21.0,13.0,-100.00,WSW,245,7.0,16.0,69,-99.99,,,-99.99,,2013-01-29 23:11:00,
2013-01-29 16:22:00,21.0,13.0,-100.00,WSW,245,7.0,16.0,69,-99.99,,,-99.99,,2013-01-29 23:22:00,
2013-01-29 16:32:00,20.0,13.0,-100.00,West,280,9.0,17.0,70,-99.99,,,-99.99,,2013-01-29 23:32:00,
2013-01-29 16:41:00,20.0,13.0,-100.00,SW,230,9.0,16.0,71,-99.99,,,-99.99,,2013-01-29 23:41:00,
2013-01-29 16:52:00,20.0,13.0,-100.00,SW,230,7.0,16.0,72,-99.99,,,-99.99,,2013-01-29 23:52:00,
2013-01-29 17:02:00,20.0,13.0,-100.00,SW,220,8.0,12.0,74,-99.99,,,-99.99,,2013-01-30 00:02:00,
2013-01-29 17:11:00,20.0,13.0,-100.00,SW,220,5.0,11.0,75,-99.99,,,-99.99,,2013-01-30 00:11:00,
2013-01-29 17:21:00,20.0,13.0,-100.00,SW,220,5.0,11.0,75,-99.99,,,-99.99,,2013-01-30 00:21:00,
2013-01-29 17:32:00,20.0,13.0,-100.00,West,275,2.0,8.0,76,-99.99,,,-99.99,,2013-01-30 00:32:00,
2013-01-29 17:42:00,19.0,14.0,-100.00,West,280,4.0,9.0,77,-99.99,,,-99.99,,2013-01-30 00:42:00,
2013-01-29 17:52:00,19.0,14.0,-100.00,West,280,4.0,9.0,77,-99.99,,,-99.99,,2013-01-30 00:52:00,
2013-01-29 18:01:00,19.0,14.0,-100.00,WSW,255,6.0,11.0,78,-99.99,,,-99.99,,2013-01-30 01:01:00,
2013-01-29 18:11:00,19.0,13.0,-100.00,SSW,200,4.0,8.0,78,-99.99,,,-99.99,,2013-01-30 01:11:00,
2013-01-29 18:22:00,19.0,13.0,-100.00,SSW,210,3.0,6.0,78,-99.99,,,-99.99,,2013-01-30 01:22:00,
2013-01-29 18:31:00,19.0,13.0,-100.00,WNW,300,2.0,6.0,78,-99.99,,,-99.99,,2013-01-30 01:31:00,
2013-01-29 18:42:00,19.0,13.0,-100.00,West,275,4.0,9.0,78,-99.99,,,-99.99,,2013-01-30 01:42:00,
2013-01-29 18:51:00,19.0,13.0,-100.00,West,275,4.0,9.0,78,-99.99,,,-99.99,,2013-01-30 01:51:00,
2013-01-29 19:01:00,19.0,13.0,-100.00,WSW,245,2.0,4.0,79,-99.99,,,-99.99,,2013-01-30 02:01:00,
2013-01-29 19:12:00,19.0,13.0,-100.00,WSW,245,2.0,4.0,79,-99.99,,,-99.99,,2013-01-30 02:12:00,
2013-01-29 19:21:00,19.0,14.0,-100.00,WNW,295,5.0,7.0,80,-99.99,,,-99.99,,2013-01-30 02:21:00,
2013-01-29 19:32:00,19.0,14.0,-100.00,SW,220,4.0,7.0,80,-99.99,,,-99.99,,2013-01-30 02:32:00,
2013-01-29 19:41:00,19.0,14.0,-100.00,SW,220,4.0,7.0,80,-99.99,,,-99.99,,2013-01-30 02:41:00,
2013-01-29 19:53:00,19.0,14.0,-100.00,SW,220,4.0,7.0,80,-99.99,,,-99.99,,2013-01-30 02:53:00,
2013-01-29 20:02:00,19.0,14.0,-100.00,SW,225,4.0,5.0,81,-99.99,,,-99.99,,2013-01-30 03:02:00,
2013-01-29 20:11:00,19.0,14.0,-100.00,West,275,1.0,2.0,82,-99.99,,,-99.99,,2013-01-30 03:11:00,
2013-01-29 20:21:00,19.0,14.0,-100.00,West,270,2.0,4.0,82,-99.99,,,-99.99,,2013-01-30 03:21:00,
2013-01-29 20:31:00,18.0,14.0,-100.00,West,270,4.0,6.0,83,-99.99,,,-99.99,,2013-01-30 03:31:00,
2013-01-29 20:42:00,18.0,14.0,-100.00,SW,230,3.0,6.0,84,-99.99,,,-99.99,,2013-01-30 03:42:00,
2013-01-29 20:51:00,18.0,14.0,-100.00,SW,230,3.0,6.0,84,-99.99,,,-99.99,,2013-01-30 03:51:00,
2013-01-29 21:01:00,18.0,14.0,-100.00,WSW,255,2.0,4.0,84,-99.99,,,-99.99,,2013-01-30 04:01:00,
2013-01-29 21:11:00,18.0,14.0,-100.00,SW,220,2.0,4.0,84,-99.99,,,-99.99,,2013-01-30 04:11:00,
2013-01-29 21:21:00,18.0,14.0,-100.00,SW,220,2.0,4.0,84,-99.99,,,-99.99,,2013-01-30 04:21:00,
2013-01-29 21:32:00,17.0,14.0,-100.00,WSW,250,2.0,6.0,84,-99.99,,,-99.99,,2013-01-30 04:32:00,
2013-01-29 21:41:00,17.0,13.0,-100.00,WSW,255,4.0,6.0,84,-99.99,,,-99.99,,2013-01-30 04:41:00,
2013-01-29 21:51:00,17.0,13.0,-100.00,WSW,255,4.0,6.0,84,-99.99,,,-99.99,,2013-01-30 04:51:00,
2013-01-29 22:03:00,17.0,13.0,-100.00,WSW,255,3.0,6.0,84,-99.99,,,-99.99,,2013-01-30 05:03:00,
2013-01-29 22:11:00,17.0,13.0,-100.00,NW,320,1.0,4.0,84,-99.99,,,-99.99,,2013-01-30 05:11:00,
2013-01-29 22:21:00,17.0,13.0,-100.00,NW,320,1.0,4.0,84,-99.99,,,-99.99,,2013-01-30 05:21:00,
2013-01-29 22:32:00,17.0,13.0,-100.00,NE,35,1.0,4.0,84,-99.99,,,-99.99,,2013-01-30 05:32:00,
2013-01-29 22:42:00,16.0,12.0,-100.00,NE,40,1.0,4.0,84,-99.99,,,-99.99,,2013-01-30 05:42:00,
2013-01-29 22:51:00,16.0,12.0,-100.00,NE,35,1.0,4.0,84,-99.99,,,-99.99,,2013-01-30 05:51:00,
2013-01-29 23:02:00,15.0,11.0,-100.00,NE,45,0.0,4.0,84,-99.99,,,-99.99,,2013-01-30 06:02:00,
2013-01-29 23:11:00,15.0,11.0,-100.00,ENE,60,2.0,6.0,84,-99.99,,,-99.99,,2013-01-30 06:11:00,
2013-01-29 23:21:00,15.0,11.0,-100.00,ENE,60,2.0,6.0,84,-99.99,,,-99.99,,2013-01-30 06:21:00,
2013-01-29 23:31:00,14.0,11.0,-100.00,NNE,25,2.0,5.0,84,-99.99,,,-99.99,,2013-01-30 06:31:00,
2013-01-29 23:41:00,14.0,10.0,-100.00,NE,35,1.0,4.0,84,-99.99,,,-99.99,,2013-01-30 06:41:00,
2013-01-29 23:51:00,14.0,10.0,-100.00,NE,35,1.0,4.0,84,-99.99,,,-99.99,,2013-01-30 06:51:00,